Regional Weather Roundup
Issued by NWS

Home | Current Version | Previous Version | Text Only | Print | Product List | Glossary On
Versions: 1 2 3 4 5 6 7 8 9 10 11 12 13 14 15 16 17 18 19 20 21 22 23 24 25 26 27 28 29 30 31 32 33 34 35 36 37 38 39 40 41 42 43 44 45 46 47 48 49 50
000
ASUS44 KLIX 162310
RWRLA
LOUISIANA WEATHER ROUNDUP
NATIONAL WEATHER SERVICE NEW ORLEANS LA
600 PM CDT WED APR 16 2014

NOTE: "FAIR" INDICATES FEW OR NO CLOUDS BELOW 12,000 FEET WITH NO
      SIGNIFICANT WEATHER AND/OR OBSTRUCTIONS TO VISIBILITY.
      SKY/WX - SKY CONDITION AND SIGNIFICANT WEATHER.
      TMP - AIR TEMPERATURE.    DP   - DEWPOINT TEMPERATURE.
      RH  - RELATIVE HUMIDITY.  PRES - PRESSURE.
      HX  - HEAT INDEX.         WCI  - WIND CHILL INDEX.

*  THESE STATIONS ARE NOT NWS OR FAA STATIONS AND ARE NOT UNDER
   NWS QUALITY CONTROL.

LAZ040-048-061>063-065-066-069-170000-
SOUTHEAST LOUISIANA

CITY           SKY/WX    TMP DP  RH WIND       PRES   REMARKS
N.O. AUDUBON   NOT AVBL
N.O. INTL ARPT MOSUNNY   61  43  51 NE12      30.12F
N.O. LAKEFRONT SUNNY     60  39  45 SE10      30.14S
N.O. DOWNTOWN* FAIR      61  36  39 E7        30.14S
SLIDELL        MOSUNNY   60  40  47 SE9       30.13S
BATON ROUGE    PTSUNNY   65  36  34 VRB3      30.10F
BOOTHVILLE     PTSUNNY   57  44  62 NE7       30.14F
BELLE CHASSE   MOSUNNY   60  41  49 E7        30.13F
BOGALUSA*        N/A     66  31  27 CALM      30.13S
GALLIANO*      MOCLDY    62  46  57 E8        30.12S
NEW ROADS*     FAIR      63  38  39 SE7       30.10F
GONZALES*      FAIR      64  45  50 E5        30.10S
HAMMOND*       MOSUNNY   63  36  36 S5        30.13S
HOUMA*         MOSUNNY   64  43  45 NE7       30.12S
PORT FOURCHON* CLOUDY    59  46  63 E9        30.13F

$$

LAZ041-044-053-054-170000-
SOUTHWEST LOUISIANA

CITY           SKY/WX    TMP DP  RH WIND       PRES   REMARKS
LAKE CHARLES   PTSUNNY   63  45  51 SE9       30.07F
LAFAYETTE      PTSUNNY   62  47  57 S6        30.09F
PATTERSON      SUNNY     66  45  45 S7        30.12F
SALT POINT       N/A     64  49  57 VRB5      30.09F
NEW IBERIA     MOSUNNY   63  44  50 VRB3      30.10F
CHENAULT AIRPK SUNNY     64  43  45 SE10      30.08F

$$

LAZ027-028-170000-
CENTRAL LOUISIANA

CITY           SKY/WX    TMP DP  RH WIND       PRES   REMARKS
FORT POLK      MOSUNNY   62  38  40 SE10      30.06F
ALEXANDRIA INT PTSUNNY   62  39  42 SE7       30.08S
ALEXANDRIA     PTSUNNY   65  35  33 SE5       30.09F

$$

LAZ001-002-170000-
NORTHWEST LOUISIANA

CITY           SKY/WX    TMP DP  RH WIND       PRES   REMARKS
SHREVEPORT     PTSUNNY   64  37  36 SE8       30.04F
BARKSDALE AFB  MOSUNNY   64  33  32 SE9       30.05S
DTN SHREVEPORT MOSUNNY   62  36  37 SE8       30.04F

$$

LAZ014-016-170000-
NORTHEAST LOUISIANA

CITY           SKY/WX    TMP DP  RH WIND       PRES   REMARKS
MONROE         PTSUNNY   62  36  37 VRB5      30.11F
TALLULAH       MOSUNNY   64  36  35 SE3       30.12F

$$




USA.gov is the U.S. government's official web portal to all federal, state and local government web resources and services.